GFSFLT1_prec_pwat_162.txt.gz
Precipitable_Water
0.82 1.02 1.04 0.98 0.95 0.93 0.91 0.92 0.86 0.80 0.76 0.74 0.72 0.69 0.68 0.69 0.69 0.66 0.64 0.62 0.62 0.60 0.58 0.56 0.58 0.56 0.55 0.53 0.51 0.51 0.53 0.47
0.76 0.97 0.99 0.93 0.91 0.87 0.85 0.87 0.86 0.81 0.74 0.69 0.67 0.64 0.66 0.67 0.67 0.67 0.65 0.64 0.63 0.63 0.61 0.58 0.59 0.57 0.56 0.53 0.52 0.49 0.51 0.48
0.71 0.87 0.91 0.87 0.87 0.85 0.85 0.86 0.87 0.83 0.78 0.75 0.72 0.69 0.68 0.68 0.68 0.68 0.67 0.66 0.65 0.64 0.62 0.59 0.58 0.59 0.57 0.55 0.52 0.49 0.52 0.49
0.70 0.81 0.86 0.85 0.84 0.85 0.86 0.88 0.89 0.86 0.82 0.79 0.74 0.73 0.71 0.68 0.66 0.66 0.66 0.67 0.66 0.64 0.62 0.60 0.60 0.62 0.59 0.55 0.52 0.49 0.45 0.48
0.71 0.79 0.85 0.86 0.84 0.90 0.90 0.91 0.92 0.89 0.86 0.80 0.74 0.69 0.64 0.66 0.67 0.68 0.66 0.67 0.66 0.65 0.62 0.61 0.62 0.62 0.56 0.54 0.53 0.50 0.46 0.41
0.68 0.78 0.86 0.89 0.87 0.88 0.92 0.93 0.91 0.89 0.86 0.82 0.76 0.69 0.70 0.72 0.71 0.68 0.67 0.67 0.65 0.63 0.61 0.62 0.60 0.58 0.55 0.52 0.48 0.45 0.44 0.39
0.69 0.79 0.85 0.88 0.90 0.89 0.90 0.91 0.90 0.89 0.89 0.84 0.79 0.75 0.72 0.72 0.71 0.67 0.67 0.64 0.61 0.60 0.61 0.60 0.59 0.57 0.53 0.50 0.49 0.45 0.42 0.39
0.72 0.77 0.81 0.86 0.87 0.87 0.86 0.87 0.86 0.87 0.88 0.86 0.83 0.78 0.76 0.74 0.70 0.67 0.62 0.59 0.59 0.62 0.64 0.63 0.57 0.56 0.51 0.48 0.45 0.42 0.41 0.38
0.77 0.81 0.82 0.85 0.84 0.83 0.81 0.82 0.82 0.83 0.85 0.85 0.83 0.80 0.76 0.73 0.69 0.64 0.60 0.60 0.63 0.63 0.59 0.58 0.58 0.54 0.50 0.45 0.42 0.39 0.37 0.34
0.69 0.80 0.81 0.80 0.78 0.76 0.77 0.77 0.78 0.79 0.79 0.79 0.78 0.77 0.73 0.67 0.64 0.61 0.61 0.64 0.62 0.63 0.61 0.57 0.54 0.50 0.44 0.42 0.38 0.35 0.33 0.29
0.67 0.71 0.74 0.75 0.74 0.75 0.75 0.74 0.72 0.73 0.75 0.75 0.74 0.71 0.67 0.63 0.62 0.63 0.64 0.63 0.64 0.60 0.58 0.54 0.49 0.44 0.40 0.37 0.35 0.32 0.30 0.29
0.66 0.68 0.73 0.74 0.74 0.73 0.72 0.71 0.68 0.70 0.73 0.74 0.72 0.68 0.64 0.62 0.66 0.74 0.65 0.64 0.62 0.60 0.56 0.50 0.45 0.41 0.39 0.36 0.31 0.30 0.29 0.29
0.68 0.70 0.72 0.73 0.73 0.73 0.72 0.71 0.70 0.70 0.75 0.73 0.68 0.62 0.63 0.68 0.72 0.65 0.67 0.63 0.62 0.57 0.51 0.46 0.42 0.38 0.36 0.32 0.29 0.28 0.27 0.26
0.61 0.65 0.71 0.72 0.74 0.73 0.73 0.73 0.71 0.74 0.73 0.66 0.64 0.71 0.78 0.71 0.70 0.68 0.70 0.63 0.58 0.54 0.48 0.44 0.41 0.37 0.34 0.31 0.29 0.27 0.27 0.27
0.55 0.59 0.64 0.70 0.72 0.72 0.74 0.75 0.76 0.76 0.77 0.80 0.79 0.77 0.74 0.74 0.75 0.71 0.63 0.59 0.55 0.53 0.47 0.42 0.39 0.36 0.33 0.30 0.29 0.29 0.28 0.27
0.53 0.56 0.60 0.63 0.66 0.66 0.69 0.72 0.75 0.79 0.78 0.76 0.75 0.74 0.74 0.74 0.71 0.65 0.62 0.64 0.57 0.53 0.46 0.43 0.42 0.38 0.34 0.33 0.31 0.30 0.29 0.28
0.46 0.48 0.51 0.60 0.63 0.66 0.66 0.69 0.73 0.75 0.71 0.70 0.72 0.69 0.70 0.69 0.67 0.67 0.63 0.55 0.52 0.54 0.47 0.42 0.40 0.34 0.33 0.34 0.32 0.30 0.28 0.26
0.44 0.45 0.45 0.53 0.63 0.60 0.58 0.62 0.67 0.66 0.65 0.64 0.65 0.66 0.67 0.67 0.66 0.62 0.57 0.57 0.57 0.49 0.46 0.44 0.38 0.33 0.32 0.32 0.32 0.29 0.26 0.25
0.46 0.47 0.47 0.52 0.54 0.58 0.58 0.61 0.61 0.62 0.62 0.63 0.67 0.65 0.63 0.63 0.62 0.60 0.57 0.57 0.52 0.46 0.43 0.42 0.36 0.32 0.30 0.30 0.29 0.26 0.26 0.25

GFSFLT1_prec_pwat_165.txt.gz
Precipitable_Water
0.88 1.03 1.09 1.16 1.23 1.20 1.18 1.12 1.04 0.98 0.90 0.81 0.73 0.67 0.65 0.67 0.65 0.64 0.64 0.65 0.65 0.61 0.60 0.61 0.60 0.56 0.53 0.53 0.53 0.56 0.53 0.47
0.80 0.96 1.04 1.12 1.14 1.12 1.10 1.08 0.99 0.92 0.84 0.76 0.69 0.64 0.65 0.67 0.69 0.67 0.65 0.66 0.66 0.64 0.62 0.63 0.62 0.57 0.55 0.54 0.54 0.54 0.51 0.49
0.76 0.90 0.94 1.00 1.05 1.07 1.05 1.01 0.99 0.91 0.88 0.82 0.74 0.69 0.69 0.69 0.69 0.68 0.67 0.66 0.67 0.66 0.64 0.64 0.64 0.59 0.55 0.54 0.53 0.54 0.53 0.50
0.61 0.78 0.91 0.94 0.95 1.00 1.02 1.01 0.95 0.92 0.89 0.82 0.76 0.74 0.72 0.69 0.68 0.68 0.68 0.68 0.68 0.69 0.68 0.66 0.65 0.61 0.56 0.55 0.56 0.53 0.47 0.50
0.60 0.73 0.83 0.90 0.94 1.01 1.03 1.01 0.95 0.92 0.87 0.81 0.75 0.72 0.69 0.71 0.69 0.70 0.70 0.71 0.71 0.70 0.68 0.67 0.63 0.60 0.57 0.57 0.57 0.53 0.50 0.42
0.58 0.71 0.81 0.89 0.94 0.96 1.02 1.04 1.01 0.95 0.88 0.85 0.79 0.77 0.76 0.75 0.74 0.71 0.69 0.71 0.72 0.70 0.67 0.64 0.61 0.59 0.59 0.57 0.55 0.53 0.49 0.42
0.65 0.75 0.83 0.90 0.96 1.00 1.03 1.04 0.99 0.95 0.90 0.88 0.84 0.79 0.74 0.73 0.73 0.71 0.69 0.69 0.68 0.67 0.64 0.61 0.60 0.60 0.60 0.60 0.57 0.54 0.46 0.43
0.70 0.75 0.82 0.91 0.97 1.01 1.02 1.00 0.97 0.95 0.90 0.87 0.87 0.80 0.76 0.74 0.74 0.73 0.69 0.66 0.65 0.64 0.61 0.58 0.60 0.61 0.62 0.62 0.58 0.52 0.47 0.41
0.79 0.85 0.90 0.94 0.96 0.97 0.98 0.98 0.92 0.89 0.90 0.88 0.87 0.82 0.79 0.77 0.78 0.76 0.70 0.64 0.61 0.60 0.61 0.62 0.61 0.61 0.60 0.58 0.52 0.47 0.44 0.39
0.83 0.87 0.88 0.90 0.89 0.88 0.90 0.91 0.86 0.85 0.84 0.83 0.81 0.78 0.76 0.76 0.77 0.74 0.66 0.62 0.60 0.62 0.64 0.63 0.60 0.59 0.59 0.54 0.49 0.45 0.40 0.37
0.82 0.84 0.85 0.86 0.87 0.86 0.87 0.85 0.82 0.81 0.81 0.80 0.80 0.78 0.77 0.76 0.75 0.67 0.62 0.60 0.62 0.65 0.63 0.61 0.60 0.57 0.54 0.49 0.43 0.42 0.37 0.34
0.73 0.75 0.79 0.80 0.82 0.81 0.80 0.79 0.77 0.75 0.76 0.76 0.77 0.77 0.77 0.76 0.70 0.62 0.59 0.59 0.68 0.64 0.64 0.60 0.56 0.53 0.49 0.44 0.40 0.38 0.34 0.31
0.69 0.74 0.75 0.75 0.75 0.76 0.76 0.74 0.74 0.75 0.76 0.75 0.75 0.76 0.74 0.68 0.60 0.58 0.63 0.68 0.70 0.66 0.61 0.55 0.52 0.49 0.45 0.40 0.37 0.35 0.31 0.29
0.57 0.63 0.68 0.70 0.71 0.73 0.72 0.73 0.73 0.75 0.75 0.74 0.74 0.71 0.66 0.60 0.57 0.65 0.75 0.75 0.72 0.67 0.58 0.53 0.51 0.47 0.42 0.39 0.36 0.33 0.31 0.30
0.55 0.56 0.62 0.66 0.67 0.67 0.68 0.69 0.72 0.73 0.74 0.74 0.69 0.64 0.63 0.68 0.74 0.76 0.74 0.74 0.68 0.58 0.56 0.54 0.50 0.45 0.42 0.40 0.37 0.33 0.32 0.31
0.48 0.53 0.58 0.65 0.66 0.67 0.66 0.67 0.69 0.71 0.71 0.71 0.71 0.75 0.78 0.77 0.74 0.74 0.72 0.69 0.64 0.58 0.59 0.53 0.49 0.45 0.41 0.38 0.37 0.34 0.32 0.30
0.43 0.49 0.52 0.58 0.59 0.61 0.64 0.64 0.63 0.66 0.66 0.66 0.67 0.71 0.72 0.71 0.70 0.70 0.68 0.66 0.66 0.61 0.56 0.49 0.49 0.42 0.42 0.39 0.36 0.34 0.32 0.30
0.42 0.47 0.49 0.52 0.55 0.59 0.57 0.56 0.61 0.59 0.59 0.62 0.67 0.68 0.66 0.67 0.68 0.66 0.64 0.62 0.60 0.58 0.57 0.54 0.43 0.43 0.40 0.38 0.35 0.34 0.31 0.28
0.45 0.48 0.53 0.55 0.55 0.53 0.54 0.56 0.58 0.58 0.57 0.60 0.65 0.64 0.63 0.63 0.64 0.59 0.59 0.59 0.58 0.55 0.54 0.49 0.44 0.39 0.38 0.37 0.36 0.32 0.28 0.25

GFSFLT1_prec_pwat_171.txt.gz
Precipitable_Water
0.88 1.03 1.24 1.28 1.32 1.37 1.38 1.33 1.29 1.29 1.27 1.23 1.19 1.12 1.04 0.94 0.84 0.81 0.80 0.77 0.72 0.67 0.64 0.61 0.59 0.57 0.57 0.57 0.55 0.54 0.56 0.61
0.87 1.02 1.20 1.29 1.30 1.34 1.31 1.29 1.30 1.27 1.19 1.13 1.11 1.08 1.05 0.98 0.86 0.78 0.75 0.72 0.68 0.65 0.63 0.62 0.61 0.56 0.56 0.59 0.57 0.53 0.59 0.68
0.78 0.90 1.06 1.10 1.12 1.14 1.26 1.26 1.28 1.27 1.23 1.17 1.19 1.17 1.11 1.01 0.88 0.81 0.75 0.71 0.68 0.65 0.63 0.60 0.59 0.57 0.57 0.59 0.58 0.54 0.58 0.67
0.62 0.79 0.95 1.11 1.09 1.09 1.16 1.21 1.26 1.28 1.30 1.28 1.23 1.22 1.17 1.00 0.86 0.76 0.74 0.73 0.70 0.68 0.66 0.65 0.63 0.62 0.59 0.60 0.60 0.59 0.56 0.60
0.60 0.72 0.84 0.97 1.07 1.18 1.26 1.31 1.28 1.30 1.32 1.29 1.24 1.18 1.07 0.96 0.87 0.82 0.74 0.74 0.72 0.72 0.72 0.70 0.68 0.65 0.62 0.62 0.62 0.60 0.60 0.55
0.60 0.71 0.82 0.98 1.09 1.14 1.21 1.23 1.27 1.28 1.28 1.31 1.22 1.15 1.03 0.95 0.87 0.82 0.78 0.77 0.77 0.76 0.73 0.69 0.67 0.67 0.64 0.62 0.61 0.61 0.60 0.57
0.71 0.84 0.93 0.98 1.09 1.12 1.18 1.20 1.23 1.27 1.26 1.24 1.19 1.09 1.00 0.91 0.85 0.80 0.80 0.77 0.76 0.76 0.73 0.71 0.68 0.64 0.62 0.62 0.62 0.61 0.60 0.59
0.76 0.81 0.87 0.94 1.02 1.12 1.24 1.28 1.25 1.26 1.23 1.19 1.14 1.06 0.97 0.88 0.85 0.83 0.82 0.79 0.73 0.71 0.71 0.68 0.66 0.64 0.62 0.61 0.62 0.61 0.60 0.58
0.82 0.87 0.93 1.00 1.09 1.21 1.28 1.27 1.23 1.20 1.14 1.11 1.09 1.06 0.97 0.93 0.90 0.89 0.85 0.77 0.73 0.71 0.67 0.65 0.63 0.63 0.63 0.63 0.60 0.61 0.60 0.55
0.82 0.91 0.99 1.05 1.11 1.11 1.10 1.12 1.13 1.11 1.07 1.04 1.03 0.98 0.95 0.89 0.88 0.86 0.81 0.79 0.76 0.72 0.67 0.64 0.62 0.60 0.59 0.59 0.60 0.59 0.56 0.54
0.80 0.83 0.87 0.96 1.00 1.02 1.06 1.08 1.05 1.05 0.99 1.00 0.95 0.94 0.92 0.92 0.89 0.84 0.81 0.79 0.77 0.73 0.69 0.64 0.60 0.59 0.58 0.59 0.59 0.60 0.60 0.57
0.75 0.79 0.86 0.90 0.94 0.95 1.01 1.04 1.00 1.01 0.99 0.99 0.95 0.91 0.90 0.88 0.86 0.83 0.80 0.78 0.76 0.74 0.70 0.63 0.57 0.56 0.56 0.62 0.65 0.61 0.55 0.51
0.64 0.68 0.71 0.75 0.79 0.88 0.95 0.96 0.97 0.94 0.92 0.89 0.86 0.86 0.85 0.82 0.79 0.77 0.77 0.75 0.75 0.73 0.69 0.61 0.57 0.56 0.63 0.67 0.62 0.54 0.52 0.48
0.63 0.65 0.63 0.66 0.70 0.73 0.77 0.81 0.81 0.82 0.80 0.79 0.76 0.74 0.73 0.73 0.74 0.74 0.73 0.72 0.70 0.72 0.68 0.61 0.59 0.66 0.66 0.64 0.56 0.53 0.47 0.44
0.59 0.59 0.62 0.65 0.66 0.68 0.69 0.71 0.72 0.71 0.69 0.68 0.67 0.67 0.66 0.65 0.66 0.66 0.67 0.70 0.67 0.62 0.60 0.61 0.67 0.67 0.63 0.62 0.56 0.48 0.46 0.42
0.51 0.49 0.51 0.59 0.63 0.64 0.64 0.64 0.61 0.62 0.60 0.58 0.58 0.60 0.61 0.59 0.59 0.58 0.59 0.61 0.61 0.63 0.66 0.67 0.66 0.64 0.62 0.61 0.54 0.45 0.41 0.38
0.39 0.42 0.46 0.52 0.56 0.57 0.59 0.58 0.55 0.57 0.54 0.53 0.56 0.57 0.58 0.58 0.59 0.59 0.58 0.59 0.63 0.64 0.65 0.63 0.61 0.60 0.60 0.59 0.51 0.45 0.42 0.38
0.38 0.39 0.40 0.42 0.47 0.53 0.53 0.56 0.54 0.53 0.52 0.52 0.53 0.56 0.57 0.58 0.57 0.57 0.58 0.60 0.62 0.58 0.57 0.59 0.58 0.58 0.58 0.57 0.52 0.48 0.43 0.36
0.36 0.37 0.41 0.42 0.47 0.51 0.54 0.55 0.52 0.51 0.45 0.46 0.49 0.50 0.50 0.49 0.49 0.50 0.53 0.55 0.55 0.56 0.54 0.55 0.56 0.56 0.56 0.55 0.54 0.47 0.41 0.38

GFSFLT1_prec_pwat_174.txt.gz
Precipitable_Water
0.75 0.89 1.02 1.24 1.32 1.38 1.40 1.39 1.35 1.34 1.36 1.38 1.36 1.32 1.27 1.23 1.15 1.07 0.97 0.90 0.88 0.84 0.76 0.67 0.60 0.54 0.53 0.53 0.52 0.57 0.63 0.64
0.82 0.94 1.04 1.17 1.28 1.30 1.30 1.27 1.31 1.31 1.28 1.22 1.25 1.22 1.23 1.22 1.18 1.13 1.01 0.94 0.89 0.82 0.75 0.67 0.60 0.53 0.53 0.53 0.54 0.58 0.63 0.68
0.65 0.81 0.92 0.98 1.15 1.28 1.28 1.26 1.29 1.34 1.32 1.29 1.25 1.23 1.21 1.21 1.20 1.15 1.07 0.97 0.88 0.82 0.73 0.65 0.60 0.57 0.58 0.57 0.55 0.60 0.66 0.71
0.54 0.67 0.79 0.91 0.99 1.20 1.27 1.28 1.33 1.34 1.33 1.31 1.31 1.29 1.27 1.21 1.20 1.20 1.14 1.04 0.93 0.81 0.73 0.66 0.61 0.59 0.58 0.61 0.60 0.58 0.58 0.66
0.61 0.60 0.75 0.89 1.05 1.24 1.25 1.27 1.32 1.33 1.37 1.33 1.30 1.25 1.23 1.23 1.21 1.26 1.15 1.03 0.93 0.85 0.74 0.67 0.63 0.61 0.60 0.61 0.65 0.60 0.59 0.56
0.65 0.65 0.83 0.99 1.17 1.20 1.21 1.25 1.30 1.32 1.36 1.36 1.34 1.27 1.27 1.28 1.25 1.10 1.00 0.95 0.90 0.85 0.79 0.72 0.66 0.65 0.66 0.63 0.61 0.63 0.63 0.60
0.75 0.82 0.89 0.94 1.06 1.13 1.15 1.14 1.21 1.25 1.30 1.33 1.32 1.29 1.25 1.18 1.08 0.98 0.93 0.88 0.86 0.83 0.80 0.75 0.72 0.72 0.66 0.65 0.66 0.62 0.61 0.61
0.76 0.80 0.85 0.91 0.98 1.08 1.14 1.19 1.20 1.29 1.29 1.30 1.28 1.24 1.20 1.10 1.06 0.99 0.89 0.86 0.84 0.82 0.79 0.76 0.72 0.68 0.67 0.64 0.62 0.60 0.59 0.58
0.79 0.82 0.88 0.94 1.00 1.07 1.11 1.14 1.15 1.19 1.16 1.16 1.19 1.13 1.08 1.04 1.00 0.97 0.94 0.94 0.90 0.85 0.79 0.73 0.70 0.68 0.65 0.62 0.60 0.60 0.61 0.62
0.80 0.84 0.90 0.99 1.02 1.02 1.02 1.04 1.04 1.06 1.07 1.10 1.07 1.10 1.09 1.05 0.98 0.97 0.91 0.86 0.83 0.80 0.77 0.74 0.71 0.68 0.66 0.65 0.61 0.60 0.60 0.59
0.81 0.85 0.88 0.89 0.90 0.94 0.94 0.93 0.91 0.96 1.02 1.05 1.07 1.04 1.04 0.99 0.98 0.95 0.93 0.88 0.83 0.80 0.75 0.72 0.70 0.67 0.63 0.61 0.59 0.59 0.58 0.56
0.76 0.80 0.84 0.86 0.90 0.91 0.91 0.92 0.93 0.92 0.97 1.00 1.00 0.97 0.95 0.96 0.94 0.94 0.91 0.87 0.82 0.77 0.72 0.70 0.70 0.68 0.67 0.63 0.58 0.58 0.60 0.60
0.73 0.75 0.75 0.77 0.77 0.79 0.81 0.86 0.84 0.88 0.93 0.92 0.91 0.93 0.91 0.88 0.88 0.88 0.86 0.81 0.78 0.75 0.72 0.72 0.74 0.68 0.61 0.58 0.57 0.63 0.62 0.58
0.70 0.71 0.71 0.72 0.75 0.77 0.78 0.80 0.82 0.84 0.84 0.79 0.77 0.79 0.78 0.76 0.78 0.76 0.73 0.71 0.71 0.71 0.69 0.69 0.66 0.64 0.61 0.61 0.66 0.66 0.62 0.58
0.59 0.60 0.63 0.64 0.67 0.70 0.72 0.75 0.77 0.77 0.73 0.68 0.67 0.66 0.66 0.66 0.65 0.62 0.61 0.61 0.60 0.60 0.61 0.62 0.61 0.58 0.60 0.64 0.65 0.62 0.61 0.54
0.50 0.50 0.52 0.52 0.53 0.60 0.64 0.67 0.66 0.65 0.62 0.59 0.56 0.57 0.57 0.57 0.56 0.57 0.57 0.57 0.57 0.58 0.56 0.53 0.54 0.58 0.61 0.61 0.60 0.58 0.54 0.50
0.46 0.48 0.48 0.45 0.47 0.52 0.58 0.59 0.59 0.59 0.56 0.52 0.50 0.49 0.50 0.52 0.53 0.55 0.55 0.55 0.55 0.53 0.54 0.56 0.57 0.59 0.59 0.58 0.56 0.52 0.50 0.45
0.46 0.50 0.43 0.43 0.45 0.47 0.50 0.54 0.57 0.55 0.51 0.51 0.50 0.47 0.47 0.49 0.50 0.48 0.47 0.46 0.47 0.48 0.52 0.52 0.51 0.53 0.55 0.56 0.54 0.52 0.50 0.49
0.34 0.36 0.37 0.41 0.44 0.47 0.51 0.53 0.54 0.53 0.49 0.48 0.46 0.44 0.44 0.46 0.44 0.42 0.42 0.42 0.44 0.47 0.48 0.48 0.48 0.49 0.50 0.52 0.53 0.51 0.49 0.48

GFSFLT1_prec_pwat_177.txt.gz
Precipitable_Water
0.74 0.91 1.01 1.10 1.19 1.34 1.39 1.42 1.43 1.48 1.52 1.48 1.36 1.35 1.39 1.43 1.45 1.43 1.37 1.23 1.09 0.98 0.93 0.90 0.85 0.69 0.57 0.50 0.49 0.55 0.58 0.65
0.80 0.89 0.98 1.08 1.15 1.22 1.28 1.33 1.37 1.40 1.37 1.33 1.28 1.24 1.33 1.37 1.39 1.35 1.34 1.23 1.12 1.00 0.95 0.91 0.81 0.68 0.58 0.54 0.55 0.56 0.61 0.67
0.62 0.82 0.93 0.98 1.03 1.08 1.15 1.26 1.31 1.39 1.36 1.40 1.37 1.29 1.32 1.40 1.40 1.36 1.35 1.27 1.16 1.04 0.98 0.90 0.80 0.68 0.61 0.58 0.59 0.59 0.62 0.69
0.62 0.61 0.80 0.98 1.02 1.09 1.14 1.20 1.29 1.35 1.41 1.39 1.35 1.34 1.35 1.30 1.30 1.28 1.29 1.26 1.21 1.10 1.00 0.90 0.79 0.71 0.63 0.60 0.63 0.63 0.61 0.69
0.69 0.65 0.64 0.86 1.01 1.17 1.25 1.23 1.29 1.35 1.37 1.36 1.32 1.27 1.21 1.26 1.28 1.30 1.28 1.25 1.24 1.19 1.07 0.95 0.84 0.74 0.67 0.65 0.63 0.65 0.67 0.64
0.71 0.73 0.78 0.86 1.02 1.14 1.19 1.21 1.22 1.31 1.30 1.33 1.35 1.29 1.31 1.35 1.33 1.29 1.26 1.26 1.26 1.19 1.10 0.94 0.83 0.75 0.70 0.67 0.64 0.63 0.63 0.66
0.79 0.84 0.88 0.90 1.01 1.12 1.17 1.21 1.21 1.28 1.30 1.29 1.28 1.27 1.28 1.24 1.21 1.20 1.19 1.16 1.12 1.10 1.00 0.88 0.80 0.74 0.69 0.67 0.66 0.64 0.67 0.65
0.79 0.80 0.85 0.90 0.96 1.03 1.12 1.19 1.22 1.28 1.29 1.29 1.30 1.28 1.23 1.16 1.12 1.10 1.05 0.99 0.95 0.88 0.87 0.82 0.79 0.74 0.70 0.69 0.69 0.70 0.72 0.73
0.80 0.84 0.87 0.90 0.94 0.99 1.05 1.09 1.13 1.17 1.20 1.18 1.19 1.18 1.12 1.12 1.04 1.05 1.03 0.98 0.98 0.96 0.96 0.93 0.89 0.86 0.85 0.81 0.74 0.73 0.68 0.62
0.80 0.87 0.92 0.95 0.97 0.98 0.97 0.97 0.99 1.02 1.05 1.08 1.08 1.09 1.06 1.04 1.06 1.05 1.02 1.02 1.00 0.97 0.93 0.89 0.86 0.83 0.81 0.77 0.72 0.67 0.66 0.66
0.79 0.85 0.87 0.88 0.89 0.91 0.91 0.91 0.92 0.99 1.00 1.03 1.02 0.99 1.02 1.01 0.97 0.98 0.97 0.94 0.89 0.84 0.82 0.79 0.75 0.73 0.70 0.68 0.64 0.63 0.62 0.59
0.74 0.80 0.82 0.83 0.83 0.81 0.83 0.85 0.86 0.87 0.87 0.89 0.91 0.89 0.94 1.00 0.94 0.96 0.95 0.93 0.88 0.84 0.80 0.77 0.73 0.70 0.68 0.65 0.62 0.59 0.60 0.63
0.72 0.76 0.79 0.79 0.78 0.80 0.81 0.84 0.81 0.82 0.84 0.83 0.84 0.84 0.83 0.82 0.82 0.85 0.88 0.82 0.82 0.79 0.76 0.74 0.73 0.75 0.75 0.72 0.69 0.67 0.62 0.57
0.69 0.75 0.74 0.72 0.74 0.75 0.78 0.82 0.80 0.79 0.76 0.74 0.72 0.72 0.74 0.72 0.71 0.72 0.72 0.71 0.69 0.66 0.65 0.65 0.67 0.69 0.65 0.61 0.57 0.55 0.57 0.62
0.65 0.67 0.66 0.68 0.70 0.71 0.72 0.74 0.76 0.75 0.73 0.70 0.67 0.65 0.63 0.63 0.64 0.63 0.62 0.60 0.57 0.55 0.56 0.56 0.57 0.56 0.56 0.56 0.55 0.56 0.60 0.60
0.57 0.58 0.59 0.62 0.61 0.62 0.65 0.70 0.70 0.70 0.66 0.63 0.59 0.58 0.56 0.54 0.54 0.55 0.55 0.54 0.53 0.53 0.53 0.52 0.52 0.50 0.49 0.49 0.53 0.55 0.54 0.53
0.53 0.56 0.55 0.58 0.59 0.57 0.58 0.62 0.63 0.62 0.60 0.57 0.55 0.53 0.52 0.52 0.52 0.52 0.52 0.52 0.51 0.48 0.46 0.45 0.43 0.45 0.47 0.50 0.50 0.50 0.51 0.49
0.49 0.53 0.54 0.56 0.56 0.52 0.50 0.56 0.59 0.57 0.56 0.53 0.51 0.50 0.50 0.49 0.51 0.49 0.48 0.44 0.46 0.44 0.42 0.43 0.44 0.48 0.50 0.49 0.48 0.46 0.42 0.43
0.46 0.47 0.51 0.54 0.56 0.50 0.52 0.53 0.55 0.51 0.51 0.49 0.49 0.50 0.48 0.47 0.47 0.45 0.45 0.42 0.41 0.41 0.41 0.44 0.46 0.46 0.45 0.45 0.46 0.44 0.41 0.42

GFSFLT1_prec_pwat_180.txt.gz
Precipitable_Water
0.65 0.76 0.92 1.06 1.14 1.16 1.27 1.36 1.49 1.57 1.55 1.51 1.48 1.45 1.47 1.49 1.49 1.49 1.52 1.51 1.49 1.43 1.24 1.08 1.00 0.92 0.82 0.70 0.59 0.56 0.61 0.65
0.69 0.79 0.88 1.03 1.14 1.15 1.20 1.35 1.43 1.45 1.40 1.34 1.33 1.36 1.40 1.41 1.45 1.48 1.52 1.52 1.52 1.43 1.29 1.15 1.04 0.95 0.85 0.75 0.67 0.63 0.67 0.70
0.64 0.78 0.90 1.01 1.05 1.12 1.16 1.23 1.34 1.41 1.40 1.38 1.38 1.35 1.38 1.43 1.43 1.49 1.52 1.54 1.52 1.42 1.35 1.22 1.08 0.98 0.90 0.77 0.71 0.67 0.71 0.73
0.66 0.68 0.75 0.99 1.00 1.10 1.16 1.19 1.21 1.34 1.35 1.35 1.32 1.32 1.35 1.37 1.38 1.43 1.48 1.50 1.49 1.42 1.38 1.26 1.14 1.04 0.91 0.82 0.78 0.74 0.70 0.76
0.70 0.72 0.71 0.71 1.01 1.16 1.21 1.22 1.23 1.32 1.32 1.25 1.24 1.27 1.24 1.32 1.33 1.36 1.37 1.41 1.39 1.34 1.32 1.27 1.16 1.05 0.93 0.83 0.82 0.81 0.80 0.72
0.70 0.73 0.77 0.85 0.95 1.07 1.17 1.18 1.19 1.23 1.27 1.29 1.27 1.22 1.24 1.28 1.30 1.29 1.31 1.35 1.32 1.28 1.25 1.21 1.17 1.08 0.94 0.84 0.76 0.75 0.82 0.81
0.76 0.81 0.84 0.85 0.93 1.02 1.12 1.17 1.19 1.25 1.29 1.30 1.32 1.24 1.24 1.26 1.26 1.23 1.21 1.21 1.21 1.19 1.19 1.17 1.12 1.05 0.97 0.88 0.82 0.80 0.72 0.67
0.76 0.77 0.80 0.85 0.90 0.97 1.06 1.14 1.19 1.26 1.27 1.28 1.30 1.31 1.28 1.25 1.24 1.20 1.17 1.13 1.10 1.08 1.10 1.06 1.04 1.00 0.94 0.90 0.79 0.73 0.69 0.67
0.74 0.78 0.80 0.84 0.89 0.95 1.00 1.04 1.10 1.19 1.25 1.27 1.30 1.27 1.25 1.23 1.20 1.13 1.12 1.09 1.07 1.05 1.06 1.04 1.00 0.98 0.97 0.93 0.89 0.86 0.86 0.86
0.73 0.80 0.85 0.88 0.92 0.95 0.97 0.97 0.99 1.05 1.08 1.10 1.12 1.16 1.12 1.12 1.13 1.14 1.11 1.09 1.06 1.02 1.00 0.98 0.96 0.93 0.92 0.90 0.89 0.88 0.87 0.85
0.76 0.80 0.82 0.86 0.89 0.90 0.91 0.90 0.89 0.92 0.97 0.99 1.00 1.02 1.04 1.06 1.04 1.03 1.00 0.91 0.91 0.88 0.88 0.84 0.80 0.79 0.80 0.77 0.74 0.73 0.70 0.67
0.75 0.77 0.80 0.82 0.82 0.81 0.80 0.83 0.84 0.85 0.90 0.91 0.90 0.87 0.86 0.84 0.83 0.84 0.84 0.82 0.82 0.81 0.79 0.78 0.76 0.72 0.67 0.64 0.61 0.60 0.59 0.58
0.76 0.78 0.80 0.80 0.79 0.79 0.78 0.78 0.77 0.79 0.82 0.82 0.83 0.83 0.83 0.83 0.81 0.81 0.82 0.80 0.79 0.76 0.73 0.70 0.68 0.68 0.69 0.70 0.68 0.67 0.64 0.61
0.77 0.78 0.76 0.77 0.77 0.77 0.78 0.81 0.79 0.81 0.79 0.77 0.76 0.74 0.74 0.72 0.71 0.72 0.72 0.70 0.67 0.64 0.63 0.61 0.62 0.64 0.65 0.64 0.62 0.60 0.58 0.56
0.76 0.80 0.77 0.77 0.76 0.77 0.77 0.80 0.81 0.77 0.72 0.70 0.67 0.68 0.70 0.69 0.67 0.66 0.65 0.64 0.60 0.57 0.54 0.52 0.52 0.52 0.50 0.48 0.47 0.46 0.46 0.48
0.66 0.66 0.75 0.77 0.75 0.79 0.80 0.80 0.81 0.77 0.74 0.70 0.68 0.67 0.67 0.62 0.60 0.59 0.58 0.56 0.51 0.49 0.48 0.48 0.48 0.47 0.45 0.43 0.42 0.41 0.42 0.44
0.72 0.69 0.68 0.73 0.75 0.72 0.76 0.80 0.78 0.79 0.73 0.66 0.63 0.60 0.56 0.54 0.51 0.49 0.50 0.48 0.48 0.47 0.45 0.43 0.42 0.42 0.42 0.42 0.42 0.42 0.41 0.40
0.62 0.60 0.66 0.67 0.73 0.71 0.70 0.74 0.76 0.74 0.70 0.64 0.58 0.54 0.51 0.50 0.50 0.48 0.47 0.46 0.47 0.45 0.43 0.41 0.39 0.40 0.42 0.43 0.44 0.43 0.41 0.39
0.60 0.63 0.64 0.66 0.67 0.71 0.73 0.74 0.69 0.69 0.62 0.58 0.57 0.54 0.49 0.51 0.48 0.46 0.46 0.47 0.43 0.40 0.38 0.38 0.37 0.39 0.43 0.43 0.40 0.41 0.40 0.39